Time,TemperatureF,DewpointF,PressureIn,WindDirection,WindDirectionDegrees,WindSpeedMPH,WindSpeedGustMPH,Humidity,HourlyPrecipIn,Conditions,Clouds,dailyrainin,SoftwareType,DateUTC
2013-02-06 00:08:00,51.1,47.0,29.94,WSW,239,3.0,6.0,85,0.00,,,0.00,weatherlink.com 1.10,2013-02-05 23:08:00,
2013-02-06 00:23:00,51.0,47.0,29.93,SSW,195,2.0,4.0,85,0.00,,,0.00,weatherlink.com 1.10,2013-02-05 23:23:00,
2013-02-06 00:38:00,51.0,47.0,29.92,SSE,163,3.0,5.0,86,0.00,,,0.00,weatherlink.com 1.10,2013-02-05 23:38:00,
2013-02-06 00:53:00,51.7,47.0,29.92,SW,219,2.0,10.0,84,0.00,,,0.00,weatherlink.com 1.10,2013-02-05 23:53:00,
2013-02-06 01:08:00,52.1,46.0,29.91,SSW,207,2.0,6.0,81,0.00,,,0.00,weatherlink.com 1.10,2013-02-06 00:08:00,
2013-02-06 01:23:00,51.8,46.0,29.90,SSW,204,1.0,2.0,81,0.00,,,0.00,weatherlink.com 1.10,2013-02-06 00:23:00,
2013-02-06 01:38:00,51.4,46.0,29.89,SW,222,2.0,3.0,81,0.00,,,0.00,weatherlink.com 1.10,2013-02-06 00:38:00,
2013-02-06 01:53:00,51.4,46.0,29.88,South,181,2.0,7.0,82,0.00,,,0.00,weatherlink.com 1.10,2013-02-06 00:53:00,
2013-02-06 02:08:00,51.9,47.0,29.88,SSW,193,3.0,7.0,82,0.00,,,0.00,weatherlink.com 1.10,2013-02-06 01:08:00,
2013-02-06 02:23:00,51.5,47.0,29.88,SSW,208,3.0,5.0,85,0.00,,,0.00,weatherlink.com 1.10,2013-02-06 01:23:00,
2013-02-06 02:38:00,51.6,48.0,29.87,WSW,249,2.0,5.0,86,0.00,,,0.00,weatherlink.com 1.10,2013-02-06 01:38:00,
2013-02-06 02:53:00,52.2,47.0,29.86,West,271,2.0,5.0,82,0.00,,,0.00,weatherlink.com 1.10,2013-02-06 01:53:00,
2013-02-06 03:08:00,53.5,47.0,29.86,NNW,336,8.0,21.0,78,0.00,,,0.00,weatherlink.com 1.10,2013-02-06 02:08:00,
2013-02-06 03:23:00,54.0,46.0,29.86,WNW,300,9.0,21.0,75,0.00,,,0.00,weatherlink.com 1.10,2013-02-06 02:23:00,
2013-02-06 03:38:00,53.7,45.0,29.86,WNW,288,14.0,25.0,73,0.00,,,0.00,weatherlink.com 1.10,2013-02-06 02:38:00,
2013-02-06 03:53:00,52.3,43.0,29.87,WNW,290,12.0,20.0,71,0.00,,,0.00,weatherlink.com 1.10,2013-02-06 02:53:00,
2013-02-06 04:08:00,51.6,42.0,29.86,NW,323,5.0,14.0,69,0.00,,,0.00,weatherlink.com 1.10,2013-02-06 03:08:00,
2013-02-06 04:23:00,51.7,41.0,29.84,WNW,283,3.0,13.0,66,0.00,,,0.00,weatherlink.com 1.10,2013-02-06 03:23:00,
2013-02-06 04:38:00,52.3,39.0,29.84,NW,326,8.0,18.0,61,0.00,,,0.00,weatherlink.com 1.10,2013-02-06 03:38:00,
2013-02-06 04:53:00,52.1,37.0,29.84,West,280,7.0,15.0,57,0.00,,,0.00,weatherlink.com 1.10,2013-02-06 03:53:00,
2013-02-06 05:08:00,51.8,38.0,29.83,WNW,290,6.0,13.0,60,0.00,,,0.00,weatherlink.com 1.10,2013-02-06 04:08:00,
2013-02-06 05:23:00,51.9,40.0,29.83,WSW,257,5.0,17.0,63,0.00,,,0.00,weatherlink.com 1.10,2013-02-06 04:23:00,
2013-02-06 05:38:00,52.0,39.0,29.84,WNW,292,15.0,24.0,62,0.00,,,0.00,weatherlink.com 1.10,2013-02-06 04:38:00,
2013-02-06 05:53:00,51.4,38.0,29.83,WNW,302,22.0,22.0,61,0.00,,,0.00,weatherlink.com 1.10,2013-02-06 04:53:00,
2013-02-06 06:08:00,51.0,37.0,29.84,NNW,345,13.0,25.0,59,0.00,,,0.00,weatherlink.com 1.10,2013-02-06 05:08:00,
2013-02-06 06:24:00,50.4,35.0,29.84,NNW,338,16.0,24.0,57,0.00,,,0.00,weatherlink.com 1.10,2013-02-06 05:24:00,
2013-02-06 06:39:00,50.2,36.0,29.84,WNW,298,14.0,20.0,59,0.00,,,0.00,weatherlink.com 1.10,2013-02-06 05:39:00,
2013-02-06 06:54:00,50.1,36.0,29.85,NW,312,9.0,25.0,59,0.00,,,0.00,weatherlink.com 1.10,2013-02-06 05:54:00,
2013-02-06 07:09:00,49.6,37.0,29.85,NW,316,11.0,20.0,62,0.00,,,0.00,weatherlink.com 1.10,2013-02-06 06:09:00,
2013-02-06 07:24:00,49.1,36.0,29.84,WNW,300,8.0,26.0,61,0.00,,,0.00,weatherlink.com 1.10,2013-02-06 06:24:00,
2013-02-06 07:39:00,48.5,36.0,29.85,WNW,291,13.0,23.0,63,0.00,,,0.00,weatherlink.com 1.10,2013-02-06 06:39:00,
2013-02-06 07:54:00,48.0,37.0,29.85,WNW,291,6.0,19.0,67,0.00,,,0.00,weatherlink.com 1.10,2013-02-06 06:54:00,
2013-02-06 08:09:00,48.0,39.0,29.85,NW,318,9.0,20.0,70,0.00,,,0.00,weatherlink.com 1.10,2013-02-06 07:09:00,
2013-02-06 08:24:00,48.0,38.0,29.86,NW,319,6.0,23.0,68,0.00,,,0.00,weatherlink.com 1.10,2013-02-06 07:24:00,
2013-02-06 08:39:00,47.8,39.0,29.86,NNW,331,7.0,18.0,71,0.00,,,0.00,weatherlink.com 1.10,2013-02-06 07:39:00,
2013-02-06 08:54:00,48.0,38.0,29.87,NNW,329,7.0,19.0,69,0.00,,,0.00,weatherlink.com 1.10,2013-02-06 07:54:00,
2013-02-06 09:09:00,49.0,39.0,29.88,NNW,338,9.0,13.0,69,0.00,,,0.00,weatherlink.com 1.10,2013-02-06 08:09:00,
2013-02-06 09:25:00,49.3,39.0,29.88,WNW,303,11.0,14.0,68,0.00,,,0.00,weatherlink.com 1.10,2013-02-06 08:25:00,
2013-02-06 09:40:00,49.7,39.0,29.88,WNW,300,7.0,16.0,67,0.00,,,0.00,weatherlink.com 1.10,2013-02-06 08:40:00,
2013-02-06 09:55:00,50.2,39.0,29.88,WNW,301,5.0,17.0,65,0.00,,,0.00,weatherlink.com 1.10,2013-02-06 08:55:00,
2013-02-06 10:10:00,50.5,39.0,29.88,WNW,302,6.0,16.0,65,0.00,,,0.00,weatherlink.com 1.10,2013-02-06 09:10:00,
2013-02-06 10:25:00,49.8,40.0,29.88,WNW,290,17.0,21.0,70,0.00,,,0.00,weatherlink.com 1.10,2013-02-06 09:25:00,
2013-02-06 10:40:00,49.5,40.0,29.87,NW,311,6.0,18.0,71,0.00,,,0.00,weatherlink.com 1.10,2013-02-06 09:40:00,
2013-02-06 10:55:00,50.5,40.0,29.88,NW,305,12.0,23.0,67,0.00,,,0.00,weatherlink.com 1.10,2013-02-06 09:55:00,
2013-02-06 11:10:00,51.1,39.0,29.89,NNW,332,11.0,19.0,63,0.00,,,0.00,weatherlink.com 1.10,2013-02-06 10:10:00,
2013-02-06 11:25:00,51.6,38.0,29.89,North,349,8.0,23.0,61,0.00,,,0.00,weatherlink.com 1.10,2013-02-06 10:25:00,
2013-02-06 11:40:00,51.6,37.0,29.89,WNW,292,16.0,27.0,59,0.00,,,0.00,weatherlink.com 1.10,2013-02-06 10:40:00,
2013-02-06 11:55:00,51.8,38.0,29.88,West,278,5.0,17.0,59,0.00,,,0.00,weatherlink.com 1.10,2013-02-06 10:55:00,
2013-02-06 12:10:00,52.3,38.0,29.87,WNW,297,3.0,17.0,58,0.00,,,0.00,weatherlink.com 1.10,2013-02-06 11:10:00,
2013-02-06 12:25:00,51.8,39.0,29.87,SW,224,4.0,13.0,61,0.00,,,0.00,weatherlink.com 1.10,2013-02-06 11:25:00,
2013-02-06 12:40:00,51.3,38.0,29.86,WNW,290,5.0,16.0,61,0.00,,,0.00,weatherlink.com 1.10,2013-02-06 11:40:00,
2013-02-06 12:55:00,51.2,39.0,29.85,West,274,5.0,20.0,64,0.00,,,0.00,weatherlink.com 1.10,2013-02-06 11:55:00,
2013-02-06 13:10:00,51.3,40.0,29.84,NW,304,13.0,24.0,66,0.00,,,0.00,weatherlink.com 1.10,2013-02-06 12:10:00,
2013-02-06 13:25:00,52.0,40.0,29.82,WNW,292,16.0,32.0,63,0.00,,,0.00,weatherlink.com 1.10,2013-02-06 12:25:00,
2013-02-06 13:40:00,52.2,38.0,29.82,NW,316,22.0,35.0,59,0.00,,,0.00,weatherlink.com 1.10,2013-02-06 12:40:00,
2013-02-06 13:55:00,52.6,38.0,29.84,NW,307,19.0,27.0,59,0.00,,,0.00,weatherlink.com 1.10,2013-02-06 12:55:00,
2013-02-06 14:10:00,52.5,38.0,29.83,NW,304,11.0,26.0,58,0.00,,,0.00,weatherlink.com 1.10,2013-02-06 13:10:00,
2013-02-06 14:25:00,52.8,37.0,29.83,WNW,295,19.0,29.0,56,0.00,,,0.00,weatherlink.com 1.10,2013-02-06 13:25:00,
2013-02-06 14:40:00,53.3,37.0,29.82,WNW,302,10.0,22.0,55,0.00,,,0.00,weatherlink.com 1.10,2013-02-06 13:40:00,
2013-02-06 14:55:00,53.3,37.0,29.82,West,264,12.0,30.0,54,0.00,,,0.00,weatherlink.com 1.10,2013-02-06 13:55:00,
2013-02-06 15:10:00,53.4,37.0,29.80,West,281,17.0,24.0,54,0.00,,,0.00,weatherlink.com 1.10,2013-02-06 14:10:00,
2013-02-06 15:25:00,54.0,37.0,29.80,West,280,10.0,33.0,52,0.00,,,0.00,weatherlink.com 1.10,2013-02-06 14:25:00,
2013-02-06 15:40:00,54.1,37.0,29.80,NW,314,7.0,22.0,52,0.00,,,0.00,weatherlink.com 1.10,2013-02-06 14:40:00,
2013-02-06 15:55:00,53.7,36.0,29.80,WSW,249,8.0,27.0,51,0.00,,,0.00,weatherlink.com 1.10,2013-02-06 14:55:00,
2013-02-06 16:10:00,54.0,37.0,29.79,WNW,288,15.0,29.0,52,0.00,,,0.00,weatherlink.com 1.10,2013-02-06 15:10:00,
2013-02-06 16:25:00,54.3,36.0,29.79,WNW,287,8.0,26.0,50,0.00,,,0.00,weatherlink.com 1.10,2013-02-06 15:25:00,
2013-02-06 16:40:00,53.8,36.0,29.78,West,261,16.0,25.0,51,0.00,,,0.00,weatherlink.com 1.10,2013-02-06 15:40:00,
2013-02-06 16:56:00,53.0,36.0,29.78,West,280,11.0,28.0,52,0.00,,,0.00,weatherlink.com 1.10,2013-02-06 15:56:00,
2013-02-06 17:11:00,53.2,36.0,29.78,WSW,253,9.0,21.0,53,0.00,,,0.00,weatherlink.com 1.10,2013-02-06 16:11:00,
2013-02-06 17:26:00,53.1,37.0,29.78,WNW,287,8.0,32.0,54,0.00,,,0.00,weatherlink.com 1.10,2013-02-06 16:26:00,
2013-02-06 17:41:00,53.2,37.0,29.78,NW,307,15.0,31.0,54,0.00,,,0.00,weatherlink.com 1.10,2013-02-06 16:41:00,
2013-02-06 17:56:00,53.1,35.0,29.78,WNW,288,13.0,38.0,50,0.00,,,0.00,weatherlink.com 1.10,2013-02-06 16:56:00,
2013-02-06 18:11:00,52.7,36.0,29.78,NW,304,17.0,28.0,53,0.00,,,0.00,weatherlink.com 1.10,2013-02-06 17:11:00,
2013-02-06 18:26:00,52.7,36.0,29.77,NW,305,18.0,35.0,54,0.00,,,0.00,weatherlink.com 1.10,2013-02-06 17:26:00,
2013-02-06 18:41:00,52.6,35.0,29.76,West,273,26.0,34.0,52,0.00,,,0.00,weatherlink.com 1.10,2013-02-06 17:41:00,
2013-02-06 18:56:00,52.9,36.0,29.77,WNW,288,24.0,35.0,53,0.00,,,0.00,weatherlink.com 1.10,2013-02-06 17:56:00,
2013-02-06 19:11:00,52.6,34.0,29.77,WNW,298,18.0,36.0,50,0.00,,,0.00,weatherlink.com 1.10,2013-02-06 18:11:00,
2013-02-06 19:26:00,52.5,36.0,29.76,WNW,292,23.0,39.0,53,0.00,,,0.00,weatherlink.com 1.10,2013-02-06 18:26:00,
2013-02-06 19:41:00,52.2,35.0,29.77,NW,311,14.0,32.0,53,0.00,,,0.00,weatherlink.com 1.10,2013-02-06 18:41:00,
2013-02-06 19:56:00,52.0,36.0,29.78,NW,319,11.0,31.0,55,0.00,,,0.00,weatherlink.com 1.10,2013-02-06 18:56:00,
2013-02-06 20:11:00,52.2,36.0,29.78,NW,326,14.0,31.0,55,0.00,,,0.00,weatherlink.com 1.10,2013-02-06 19:11:00,
2013-02-06 20:26:00,52.2,34.0,29.78,WNW,298,9.0,37.0,51,0.00,,,0.00,weatherlink.com 1.10,2013-02-06 19:26:00,
2013-02-06 20:41:00,51.7,35.0,29.79,WNW,300,24.0,39.0,53,0.00,,,0.00,weatherlink.com 1.10,2013-02-06 19:41:00,
2013-02-06 20:56:00,51.2,36.0,29.78,WNW,302,22.0,37.0,56,0.00,,,0.00,weatherlink.com 1.10,2013-02-06 19:56:00,
2013-02-06 21:11:00,50.7,36.0,29.78,NW,304,14.0,35.0,58,0.00,,,0.00,weatherlink.com 1.10,2013-02-06 20:11:00,
2013-02-06 21:26:00,50.7,36.0,29.78,West,278,11.0,38.0,58,0.00,,,0.00,weatherlink.com 1.10,2013-02-06 20:26:00,
2013-02-06 21:41:00,50.5,37.0,29.78,NNW,338,17.0,36.0,60,0.00,,,0.00,weatherlink.com 1.10,2013-02-06 20:41:00,
2013-02-06 21:56:00,49.6,36.0,29.78,WNW,291,6.0,31.0,59,0.00,,,0.00,weatherlink.com 1.10,2013-02-06 20:56:00,
2013-02-06 22:11:00,49.6,36.0,29.79,NW,316,21.0,25.0,61,0.00,,,0.00,weatherlink.com 1.10,2013-02-06 21:11:00,
2013-02-06 22:26:00,49.5,36.0,29.79,NW,314,15.0,29.0,61,0.00,,,0.00,weatherlink.com 1.10,2013-02-06 21:26:00,
2013-02-06 22:41:00,49.3,37.0,29.80,NW,307,5.0,19.0,64,0.00,,,0.00,weatherlink.com 1.10,2013-02-06 21:41:00,
2013-02-06 22:56:00,49.2,38.0,29.81,WNW,298,11.0,19.0,66,0.00,,,0.00,weatherlink.com 1.10,2013-02-06 21:56:00,
2013-02-06 23:11:00,49.0,38.0,29.80,NNW,332,14.0,24.0,67,0.00,,,0.00,weatherlink.com 1.10,2013-02-06 22:11:00,
2013-02-06 23:26:00,48.7,39.0,29.78,WNW,290,19.0,27.0,69,0.00,,,0.00,weatherlink.com 1.10,2013-02-06 22:26:00,
2013-02-06 23:41:00,48.6,38.0,29.78,NNW,336,11.0,30.0,68,0.00,,,0.00,weatherlink.com 1.10,2013-02-06 22:41:00,
2013-02-06 23:56:00,48.4,38.0,29.78,NW,310,10.0,28.0,67,0.00,,,0.00,weatherlink.com 1.10,2013-02-06 22:56:00,